Tracking 29892 objects as of 21-Nov-2024
HD Live streaming from Space Station
objects crossing your sky now

STARLINK-1737

Track STARLINK-1737 now!
10-day predictions
STARLINK-1737 is classified as:


NORAD ID: 46586
Int'l Code: 2020-070BG
Perigee: 444.5 km
Apogee: 446.2 km
Inclination: 53.0 °
Period: 93.3 minutes
Semi major axis: 6816 km
RCS: Unknown
Launch date: October 6, 2020
Source: United States (US)
Launch site: AIR FORCE EASTERN TEST RANGE (AFETR)
Your satellite tracking list
Your tracking list is empty




NASA's NSSDC Master Catalog

Two Line Element Set (TLE):
1 46586U 20070BG  24325.91668981  .01255855  00000-0  26033-1 0  9998
2 46586  53.0496 121.3913 0001263  69.0500  11.4220 15.42673917  5796
Source of the keplerian elements: AFSPC